Flag for China Weather past 2 weeks in Dalian, Liaoning, China

48 °F

Light rain. Fog.

Feels Like: 46 °F
Forecast: 32 / 43 °F
Wind: 6 mph from South

Location: Dalian Airport

Current Time: Dec 1, 2015 at 3:28:30 PM

Latest Report: Dec 1, 2015 at 3:00 PM

Visibility: 2 mi

Pressure: 30.04 "Hg

Humidity: 94%

Dew point: 46 °F

Location of DalianLocation

Historic Weather in Dalian — Graph


Dalian temperature yesterday

Maximum temperature yesterday: 41 °F (at 12:30 PM)
Minimum temperature yesterday: 25 °F (at 4:30 AM)
Average temperature yesterday: 33 °F

Past Weeks' High & Low Weather Summary

High48 °F (Dec 1, 1:00 PM)100% (Nov 21, 9:00 AM)30.69 "Hg (Nov 21, 9:00 AM)
Low14 °F (Nov 24, 7:00 AM)39% (Nov 17, 11:00 AM)30.01 "Hg (Nov 16, 2:30 PM)
Average30 °F72%30.35 "Hg
* Reported Nov 16 2:30 PM — Dec 1 2:30 PM, Dalian, Weather by CustomWeather, © 2015

Note: Actual official high and low records may vary slightly from our data, if they occured in-between our weather recording intervals... More about our weather records


Dalian weather history for previous 24 hours

Time TempWeatherWind HumidityBarometerVisibility
2:30 PM
Tue, Dec 1
48 °FLight rain. Fog.8 mph87%30.07 "Hg2 mi
2:00 PM48 °FFog.8 mph87%30.07 "Hg3 mi
1:30 PM48 °FFog.6 mph87%30.07 "Hg3 mi
1:00 PM48 °FLight rain. Fog.8 mph87%30.07 "Hg2 mi
12:30 PM46 °FLight rain. Fog.3 mph93%30.09 "Hg2 mi
12:00 PM46 °FLight rain. Fog.3 mph93%30.09 "Hg1 mi
11:30 AM46 °FLight rain. Fog.3 mph93%30.12 "Hg2 mi
11:00 AM46 °FLight rain. Fog.6 mph93%30.15 "Hg1 mi
10:30 AM45 °FLight rain. Fog.6 mph93%30.15 "Hg1 mi
10:00 AM45 °FLight rain. Fog.6 mph93%30.18 "Hg1 mi
9:00 AM45 °FLight rain. Fog.6 mph93%30.18 "Hg2 mi
8:30 AM45 °FLight rain. Fog.3 mph93%30.21 "Hg2 mi
8:00 AM45 °FLight rain. Fog.3 mph87%30.18 "Hg2 mi
7:30 AM45 °FLight rain. Fog.6 mph87%30.18 "Hg2 mi
6:30 AM45 °FLight rain. Passing clouds.3 mph81%30.18 "Hg4 mi
6:00 AM45 °FLight rain. Clear.6 mph76%30.18 "Hg5 mi
5:30 AM45 °FClear.6 mph76%30.18 "Hg5 mi
5:00 AM45 °FPassing clouds.6 mph71%30.18 "HgN/A
4:30 AM45 °FClear.8 mph66%30.18 "Hg10 mi
4:00 AM43 °FPassing clouds.6 mph71%30.21 "HgN/A
3:30 AM43 °FClear.6 mph66%30.21 "Hg10 mi
3:00 AM41 °FPassing clouds.3 mph70%30.21 "HgN/A
2:30 AM41 °FClear.6 mph70%30.24 "Hg4 mi
2:00 AM41 °FClear.3 mph70%30.24 "Hg4 mi
1:30 AM39 °FFog.3 mph75%30.24 "Hg2 mi
1:00 AM39 °FFog.6 mph75%30.24 "Hg2 mi
12:30 AM37 °FFog.6 mph81%30.24 "Hg2 mi
12:00 AM37 °FFog.1 mph75%30.27 "Hg2 mi
11:30 PM
Mon, Nov 30
36 °FFog.3 mph75%30.27 "Hg2 mi
11:00 PM36 °FFog.6 mph75%30.27 "Hg2 mi
10:30 PM36 °FFog.6 mph75%30.27 "Hg2 mi
10:00 PM34 °FFog.6 mph81%30.27 "Hg2 mi
9:30 PM36 °FFog.3 mph75%30.27 "Hg2 mi
9:00 PM34 °FFog.3 mph75%30.27 "Hg2 mi
8:30 PM34 °FFog.1 mph75%30.27 "Hg2 mi
8:00 PM34 °FFog.No wind70%30.27 "Hg2 mi
7:30 PM36 °FFog.1 mph75%30.27 "Hg2 mi
7:00 PM36 °FFog.3 mph70%30.27 "Hg2 mi
6:30 PM37 °FFog.1 mph65%30.27 "Hg3 mi
6:00 PM37 °FClear.3 mph65%30.27 "Hg4 mi
5:30 PM37 °FClear.3 mph65%30.27 "Hg4 mi
5:00 PM37 °FClear.3 mph65%30.27 "Hg4 mi
4:30 PM37 °FClear.3 mph65%30.27 "Hg4 mi
4:00 PM39 °FClear.1 mph56%30.27 "Hg4 mi
3:30 PM41 °FClear.1 mph53%30.27 "Hg4 mi
3:00 PM41 °FClear.3 mph57%30.27 "Hg4 mi
Weather by CustomWeather, © 2015

See weather overviewHow to use our weather pages